Time,TemperatureF,DewpointF,PressureIn,WindDirection,WindDirectionDegrees,WindSpeedMPH,WindSpeedGustMPH,Humidity,HourlyPrecipIn,Conditions,Clouds,dailyrainin,SoftwareType,DateUTC
2013-02-19 00:00:00,30.4,17.4,29.97,SE,124,5.0,5.0,58,0.00,,,0.00,Wunderground v.1.15,2013-02-19 05:00:00,
2013-02-19 00:10:00,30.6,17.6,29.96,East,91,6.0,7.0,58,0.00,,,0.00,Wunderground v.1.15,2013-02-19 05:10:00,
2013-02-19 00:20:00,30.9,18.2,29.96,SE,139,6.0,6.0,59,0.00,,,0.00,Wunderground v.1.15,2013-02-19 05:20:00,
2013-02-19 00:31:00,31.2,18.1,29.96,SE,125,5.0,8.0,58,0.00,,,0.00,Wunderground v.1.15,2013-02-19 05:31:00,
2013-02-19 00:40:00,31.3,18.2,29.95,ESE,105,6.0,6.0,58,0.00,,,0.00,Wunderground v.1.15,2013-02-19 05:40:00,
2013-02-19 00:51:00,31.4,18.3,29.95,SE,143,6.0,6.0,58,0.00,,,0.00,Wunderground v.1.15,2013-02-19 05:51:00,
2013-02-19 01:01:00,31.6,18.5,29.95,SE,127,5.0,5.0,58,0.00,,,0.00,Wunderground v.1.15,2013-02-19 06:01:00,
2013-02-19 01:10:00,31.9,18.8,29.94,SE,128,6.0,6.0,58,0.00,,,0.00,Wunderground v.1.15,2013-02-19 06:10:00,
2013-02-19 01:21:00,32.2,18.7,29.93,SSE,147,7.0,7.0,57,0.00,,,0.00,Wunderground v.1.15,2013-02-19 06:21:00,
2013-02-19 01:31:00,32.5,18.9,29.93,ESE,113,8.0,8.0,57,0.00,,,0.00,Wunderground v.1.15,2013-02-19 06:31:00,
2013-02-19 01:41:00,32.7,19.1,29.92,SE,146,8.0,8.0,57,0.00,,,0.00,Wunderground v.1.15,2013-02-19 06:41:00,
2013-02-19 01:51:00,32.8,19.2,29.92,SE,135,7.0,8.0,57,0.00,,,0.00,Wunderground v.1.15,2013-02-19 06:51:00,
2013-02-19 02:01:00,32.9,18.9,29.91,ESE,106,8.0,8.0,56,0.00,,,0.00,Wunderground v.1.15,2013-02-19 07:01:00,
2013-02-19 02:10:00,33.0,19.4,29.91,ESE,120,8.0,10.0,57,0.00,,,0.00,Wunderground v.1.15,2013-02-19 07:10:00,
2013-02-19 02:20:00,33.2,20.0,29.90,SSE,160,8.0,9.0,58,0.00,,,0.00,Wunderground v.1.15,2013-02-19 07:20:00,
2013-02-19 02:30:00,33.4,19.8,29.90,SSE,150,8.0,13.0,57,0.00,,,0.00,Wunderground v.1.15,2013-02-19 07:30:00,
2013-02-19 02:40:00,33.5,19.9,29.89,SSE,153,8.0,8.0,57,0.00,,,0.00,Wunderground v.1.15,2013-02-19 07:40:00,
2013-02-19 02:50:00,33.8,20.6,29.89,SSE,156,7.0,8.0,58,0.00,,,0.00,Wunderground v.1.15,2013-02-19 07:50:00,
2013-02-19 03:00:00,34.1,20.4,29.88,SSE,149,8.0,9.0,57,0.00,,,0.00,Wunderground v.1.15,2013-02-19 08:00:00,
2013-02-19 03:10:00,34.5,20.8,29.87,SSE,157,9.0,9.0,57,0.00,,,0.00,Wunderground v.1.15,2013-02-19 08:10:00,
2013-02-19 03:20:00,34.8,20.7,29.86,SE,132,9.0,13.0,56,0.00,,,0.00,Wunderground v.1.15,2013-02-19 08:20:00,
2013-02-19 03:30:00,34.8,20.7,29.86,SE,140,9.0,9.0,56,0.00,,,0.00,Wunderground v.1.15,2013-02-19 08:30:00,
2013-02-19 03:40:00,34.8,20.7,29.85,ESE,111,9.0,9.0,56,0.00,,,0.00,Wunderground v.1.15,2013-02-19 08:40:00,
2013-02-19 03:50:00,34.7,20.2,29.84,SSE,148,8.0,8.0,55,0.00,,,0.00,Wunderground v.1.15,2013-02-19 08:50:00,
2013-02-19 04:00:00,34.5,20.4,29.84,SE,139,8.0,11.0,56,0.00,,,0.00,Wunderground v.1.15,2013-02-19 09:00:00,
2013-02-19 04:10:00,34.3,20.2,29.83,SE,137,7.0,7.0,56,0.00,,,0.00,Wunderground v.1.15,2013-02-19 09:10:00,
2013-02-19 04:20:00,34.3,20.2,29.83,ESE,123,7.0,12.0,56,0.00,,,0.00,Wunderground v.1.15,2013-02-19 09:20:00,
2013-02-19 04:30:00,34.3,20.6,29.82,SE,136,7.0,7.0,57,0.00,,,0.00,Wunderground v.1.15,2013-02-19 09:30:00,
2013-02-19 04:40:00,34.2,20.5,29.81,SE,132,6.0,7.0,57,0.00,,,0.00,Wunderground v.1.15,2013-02-19 09:40:00,
2013-02-19 04:50:00,34.6,20.5,29.81,SE,146,7.0,7.0,56,0.00,,,0.00,Wunderground v.1.15,2013-02-19 09:50:00,
2013-02-19 05:00:00,34.9,20.8,29.80,SE,146,6.0,7.0,56,0.00,,,0.00,Wunderground v.1.15,2013-02-19 10:00:00,
2013-02-19 05:10:00,35.5,20.5,29.79,SE,133,8.0,8.0,54,0.00,,,0.00,Wunderground v.1.15,2013-02-19 10:10:00,
2013-02-19 05:20:00,35.9,20.9,29.79,SSE,152,9.0,9.0,54,0.00,,,0.00,Wunderground v.1.15,2013-02-19 10:20:00,
2013-02-19 05:30:00,36.2,20.7,29.78,SSE,153,9.0,10.0,53,0.00,,,0.00,Wunderground v.1.15,2013-02-19 10:30:00,
2013-02-19 05:40:00,36.1,21.0,29.78,South,169,9.0,9.0,54,0.00,,,0.00,Wunderground v.1.15,2013-02-19 10:40:00,
2013-02-19 05:50:00,36.2,21.1,29.77,South,169,10.0,10.0,54,0.00,,,0.00,Wunderground v.1.15,2013-02-19 10:50:00,
2013-02-19 06:00:00,36.3,21.2,29.76,SSE,165,10.0,10.0,54,0.00,,,0.00,Wunderground v.1.15,2013-02-19 11:00:00,
2013-02-19 06:10:00,36.4,21.3,29.75,SE,142,10.0,10.0,54,0.00,,,0.00,Wunderground v.1.15,2013-02-19 11:10:00,
2013-02-19 06:20:00,36.6,21.5,29.75,South,180,8.0,17.0,54,0.00,,,0.00,Wunderground v.1.15,2013-02-19 11:20:00,
2013-02-19 06:30:00,36.9,21.8,29.74,SSE,157,9.0,17.0,54,0.00,,,0.00,Wunderground v.1.15,2013-02-19 11:30:00,
2013-02-19 06:40:00,36.9,21.8,29.74,South,186,9.0,9.0,54,0.00,,,0.00,Wunderground v.1.15,2013-02-19 11:40:00,
2013-02-19 06:50:00,37.0,21.4,29.73,SE,145,9.0,17.0,53,0.00,,,0.00,Wunderground v.1.15,2013-02-19 11:50:00,
2013-02-19 07:00:00,37.2,22.5,29.73,SSE,157,9.0,17.0,55,0.00,,,0.00,Wunderground v.1.15,2013-02-19 12:00:00,
2013-02-19 07:10:00,37.4,22.3,29.73,SSE,156,9.0,17.0,54,0.00,,,0.00,Wunderground v.1.15,2013-02-19 12:10:00,
2013-02-19 07:20:00,37.6,22.4,29.72,SE,139,8.0,17.0,54,0.00,,,0.00,Wunderground v.1.15,2013-02-19 12:20:00,
2013-02-19 07:30:00,37.9,23.2,29.71,SSE,161,9.0,17.0,55,0.00,,,0.00,Wunderground v.1.15,2013-02-19 12:30:00,
2013-02-19 07:40:00,38.4,23.2,29.71,SSE,148,10.0,10.0,54,0.00,,,0.00,Wunderground v.1.15,2013-02-19 12:40:00,
2013-02-19 07:50:00,38.7,23.0,29.71,SSE,163,8.0,8.0,53,0.00,,,0.00,Wunderground v.1.15,2013-02-19 12:50:00,
2013-02-19 08:00:00,38.7,23.5,29.70,SSE,162,7.0,7.0,54,0.00,,,0.00,Wunderground v.1.15,2013-02-19 13:00:00,
2013-02-19 08:10:00,38.8,23.1,29.71,South,171,8.0,8.0,53,0.00,,,0.00,Wunderground v.1.15,2013-02-19 13:10:00,
2013-02-19 08:20:00,38.8,23.6,29.70,SSE,153,7.0,17.0,54,0.00,,,0.00,Wunderground v.1.15,2013-02-19 13:20:00,
2013-02-19 08:30:00,39.0,23.7,29.71,South,172,8.0,8.0,54,0.00,,,0.00,Wunderground v.1.15,2013-02-19 13:30:00,
2013-02-19 08:40:00,39.2,24.4,29.71,South,182,6.0,17.0,55,0.00,,,0.00,Wunderground v.1.15,2013-02-19 13:40:00,
2013-02-19 08:50:00,39.4,25.4,29.71,SSE,161,7.0,17.0,57,0.00,,,0.00,Wunderground v.1.15,2013-02-19 13:50:00,
2013-02-19 09:00:00,39.6,26.4,29.70,SSE,164,9.0,17.0,59,0.00,,,0.00,Wunderground v.1.15,2013-02-19 14:00:00,
2013-02-19 09:10:00,39.2,27.7,29.69,South,184,10.0,17.0,63,0.00,,,0.00,Wunderground v.1.15,2013-02-19 14:10:00,
2013-02-19 09:20:00,38.7,29.0,29.69,South,169,10.0,10.0,68,0.00,,,0.00,Wunderground v.1.15,2013-02-19 14:20:00,
2013-02-19 09:30:00,38.5,30.3,29.68,SSW,195,10.0,10.0,72,0.00,,,0.00,Wunderground v.1.15,2013-02-19 14:30:00,
2013-02-19 09:40:00,37.8,31.6,29.67,SSE,163,9.0,17.0,78,0.00,,,0.00,Wunderground v.1.15,2013-02-19 14:40:00,
2013-02-19 09:50:00,37.6,32.0,29.66,SSE,159,10.0,10.0,80,0.00,,,0.00,Wunderground v.1.15,2013-02-19 14:50:00,
2013-02-19 10:00:00,37.2,32.2,29.67,SSE,165,7.0,17.0,82,0.00,,,0.00,Wunderground v.1.15,2013-02-19 15:00:00,
2013-02-19 10:10:00,37.3,32.6,29.66,SSE,166,9.0,9.0,83,0.00,,,0.00,Wunderground v.1.15,2013-02-19 15:10:00,
2013-02-19 10:20:00,37.0,32.3,29.66,SSE,165,7.0,17.0,83,0.00,,,0.00,Wunderground v.1.15,2013-02-19 15:20:00,
2013-02-19 10:30:00,36.6,32.5,29.66,South,185,6.0,17.0,85,0.00,,,0.00,Wunderground v.1.15,2013-02-19 15:30:00,
2013-02-19 10:40:00,36.6,32.8,29.66,SSE,150,6.0,17.0,86,0.00,,,0.00,Wunderground v.1.15,2013-02-19 15:40:00,
2013-02-19 10:50:00,36.7,33.2,29.66,SE,144,5.0,17.0,87,0.00,,,0.00,Wunderground v.1.15,2013-02-19 15:50:00,
2013-02-19 11:00:00,36.9,33.1,29.65,SE,139,7.0,17.0,86,0.00,,,0.00,Wunderground v.1.15,2013-02-19 16:00:00,
2013-02-19 11:10:00,37.0,32.9,29.65,SSE,148,9.0,17.0,85,0.00,,,0.00,Wunderground v.1.15,2013-02-19 16:10:00,
2013-02-19 11:20:00,37.0,32.9,29.64,SSE,148,8.0,8.0,85,0.00,,,0.00,Wunderground v.1.15,2013-02-19 16:20:00,
2013-02-19 11:30:00,37.1,33.0,29.63,SSE,161,8.0,17.0,85,0.00,,,0.00,Wunderground v.1.15,2013-02-19 16:30:00,
2013-02-19 11:40:00,37.2,33.1,29.63,SE,126,8.0,17.0,85,0.00,,,0.00,Wunderground v.1.15,2013-02-19 16:40:00,
2013-02-19 11:50:00,37.3,32.9,29.62,SSE,150,7.0,17.0,84,0.00,,,0.00,Wunderground v.1.15,2013-02-19 16:50:00,
2013-02-19 12:00:00,37.6,33.2,29.62,SE,142,9.0,9.0,84,0.00,,,0.00,Wunderground v.1.15,2013-02-19 17:00:00,
2013-02-19 12:10:00,37.9,33.2,29.61,SSE,165,8.0,8.0,83,0.00,,,0.00,Wunderground v.1.15,2013-02-19 17:10:00,
2013-02-19 12:20:00,38.5,33.5,29.61,South,185,8.0,8.0,82,0.00,,,0.00,Wunderground v.1.15,2013-02-19 17:20:00,
2013-02-19 12:30:00,38.9,33.3,29.60,SE,145,9.0,17.0,80,0.00,,,0.00,Wunderground v.1.15,2013-02-19 17:30:00,
2013-02-19 12:40:00,39.2,33.5,29.59,South,188,9.0,9.0,80,0.00,,,0.00,Wunderground v.1.15,2013-02-19 17:40:00,
2013-02-19 12:50:00,39.5,33.5,29.59,SSE,156,8.0,8.0,79,0.00,,,0.00,Wunderground v.1.15,2013-02-19 17:50:00,
2013-02-19 13:00:00,40.0,33.7,29.58,SSE,156,10.0,10.0,78,0.00,,,0.00,Wunderground v.1.15,2013-02-19 18:00:00,
2013-02-19 13:10:00,40.0,34.0,29.57,SE,137,9.0,17.0,79,0.00,,,0.00,Wunderground v.1.15,2013-02-19 18:10:00,
2013-02-19 13:20:00,40.4,34.1,29.56,SSE,159,10.0,17.0,78,0.00,,,0.00,Wunderground v.1.15,2013-02-19 18:20:00,
2013-02-19 13:30:00,41.2,34.5,29.56,South,173,10.0,17.0,77,0.00,,,0.00,Wunderground v.1.15,2013-02-19 18:30:00,
2013-02-19 13:40:00,41.6,34.9,29.56,South,175,9.0,9.0,77,0.00,,,0.00,Wunderground v.1.15,2013-02-19 18:40:00,
2013-02-19 13:50:00,42.4,35.7,29.56,SE,142,9.0,17.0,77,0.00,,,0.00,Wunderground v.1.15,2013-02-19 18:50:00,
2013-02-19 14:00:00,42.1,35.1,29.55,SSE,160,10.0,17.0,76,0.00,,,0.00,Wunderground v.1.15,2013-02-19 19:00:00,
2013-02-19 14:10:00,41.6,34.9,29.55,SE,140,8.0,17.0,77,0.00,,,0.00,Wunderground v.1.15,2013-02-19 19:10:00,
2013-02-19 14:20:00,41.6,34.9,29.55,SSE,165,7.0,17.0,77,0.00,,,0.00,Wunderground v.1.15,2013-02-19 19:20:00,
2013-02-19 14:30:00,41.9,35.2,29.56,SSW,207,6.0,6.0,77,0.00,,,0.00,Wunderground v.1.15,2013-02-19 19:30:00,
2013-02-19 14:40:00,40.7,35.0,29.58,WNW,288,6.0,6.0,80,0.00,,,0.00,Wunderground v.1.15,2013-02-19 19:40:00,
2013-02-19 14:50:00,38.0,34.2,29.58,SE,146,6.0,6.0,86,0.00,,,0.00,Wunderground v.1.15,2013-02-19 19:50:00,
2013-02-19 15:00:00,37.3,34.1,29.59,SW,215,5.0,5.0,88,0.00,,,0.00,Wunderground v.1.15,2013-02-19 20:00:00,
2013-02-19 15:10:00,36.6,33.7,29.59,West,263,5.0,17.0,89,0.00,,,0.00,Wunderground v.1.15,2013-02-19 20:10:00,
2013-02-19 15:20:00,36.3,33.4,29.59,West,269,5.0,17.0,89,0.00,,,0.00,Wunderground v.1.15,2013-02-19 20:20:00,
2013-02-19 15:30:00,35.9,32.7,29.60,West,278,6.0,6.0,88,0.00,,,0.00,Wunderground v.1.15,2013-02-19 20:30:00,
2013-02-19 15:40:00,35.5,32.0,29.61,WNW,286,6.0,6.0,87,0.00,,,0.00,Wunderground v.1.15,2013-02-19 20:40:00,
2013-02-19 15:50:00,35.0,30.9,29.62,NW,306,6.0,17.0,85,0.00,,,0.00,Wunderground v.1.15,2013-02-19 20:50:00,
2013-02-19 16:00:00,34.5,30.2,29.63,SW,230,7.0,17.0,84,0.00,,,0.00,Wunderground v.1.15,2013-02-19 21:00:00,
2013-02-19 16:10:00,34.0,29.7,29.63,West,263,7.0,17.0,84,0.00,,,0.00,Wunderground v.1.15,2013-02-19 21:10:00,
2013-02-19 16:20:00,33.7,29.7,29.64,West,279,9.0,9.0,85,0.00,,,0.00,Wunderground v.1.15,2013-02-19 21:20:00,
2013-02-19 16:30:00,33.2,29.8,29.65,SW,227,7.0,7.0,87,0.00,,,0.00,Wunderground v.1.15,2013-02-19 21:30:00,
2013-02-19 16:40:00,32.8,29.1,29.65,West,264,6.0,17.0,86,0.00,,,0.00,Wunderground v.1.15,2013-02-19 21:40:00,
2013-02-19 16:50:00,32.6,28.3,29.66,West,266,8.0,17.0,84,0.00,,,0.00,Wunderground v.1.15,2013-02-19 21:50:00,
2013-02-19 17:00:00,32.4,27.8,29.67,WSW,254,7.0,17.0,83,0.00,,,0.00,Wunderground v.1.15,2013-02-19 22:00:00,
2013-02-19 17:10:00,32.4,27.8,29.67,West,264,7.0,17.0,83,0.00,,,0.00,Wunderground v.1.15,2013-02-19 22:10:00,
2013-02-19 17:20:00,32.3,27.4,29.68,NNW,346,8.0,8.0,82,0.00,,,0.00,Wunderground v.1.15,2013-02-19 22:20:00,
2013-02-19 17:30:00,32.0,26.8,29.68,West,268,7.0,17.0,81,0.00,,,0.00,Wunderground v.1.15,2013-02-19 22:30:00,
2013-02-19 17:40:00,31.9,26.1,29.69,West,261,7.0,7.0,79,0.00,,,0.00,Wunderground v.1.15,2013-02-19 22:40:00,
2013-02-19 17:50:00,31.8,25.7,29.70,WSW,240,6.0,17.0,78,0.00,,,0.00,Wunderground v.1.15,2013-02-19 22:50:00,
2013-02-19 18:00:00,31.7,25.3,29.70,West,275,8.0,8.0,77,0.00,,,0.00,Wunderground v.1.15,2013-02-19 23:00:00,
2013-02-19 18:10:00,31.7,25.3,29.70,WSW,247,5.0,17.0,77,0.00,,,0.00,Wunderground v.1.15,2013-02-19 23:10:00,
2013-02-19 18:20:00,31.7,25.0,29.70,West,279,5.0,17.0,76,0.00,,,0.00,Wunderground v.1.15,2013-02-19 23:20:00,
2013-02-19 18:30:00,31.8,25.1,29.71,WSW,245,6.0,6.0,76,0.00,,,0.00,Wunderground v.1.15,2013-02-19 23:30:00,
2013-02-19 18:40:00,31.8,25.1,29.71,WSW,254,5.0,5.0,76,0.00,,,0.00,Wunderground v.1.15,2013-02-19 23:40:00,
2013-02-19 18:50:00,31.7,25.3,29.71,WSW,252,4.0,4.0,77,0.00,,,0.00,Wunderground v.1.15,2013-02-19 23:50:00,
2013-02-19 19:01:00,31.8,24.5,29.71,West,267,5.0,17.0,74,0.00,,,0.00,Wunderground v.1.15,2013-02-20 00:01:00,
2013-02-19 19:10:00,31.8,24.5,29.71,WSW,253,6.0,6.0,74,0.00,,,0.00,Wunderground v.1.15,2013-02-20 00:10:00,
2013-02-19 19:20:00,31.7,24.4,29.71,SW,232,4.0,17.0,74,0.00,,,0.00,Wunderground v.1.15,2013-02-20 00:20:00,
2013-02-19 19:31:00,31.9,24.9,29.71,SW,223,6.0,17.0,75,0.00,,,0.00,Wunderground v.1.15,2013-02-20 00:31:00,
2013-02-19 19:40:00,31.7,25.0,29.72,WNW,282,7.0,17.0,76,0.00,,,0.00,Wunderground v.1.15,2013-02-20 00:40:00,
2013-02-19 19:51:00,31.5,25.1,29.72,West,262,9.0,17.0,77,0.00,,,0.00,Wunderground v.1.15,2013-02-20 00:51:00,
2013-02-19 20:01:00,31.1,25.0,29.72,WSW,250,9.0,9.0,78,0.00,,,0.00,Wunderground v.1.15,2013-02-20 01:01:00,
2013-02-19 20:10:00,30.8,24.4,29.73,SW,232,8.0,8.0,77,0.00,,,0.00,Wunderground v.1.15,2013-02-20 01:10:00,
2013-02-19 20:20:00,30.6,23.6,29.73,West,274,7.0,17.0,75,0.00,,,0.00,Wunderground v.1.15,2013-02-20 01:20:00,
2013-02-19 20:30:00,30.5,23.2,29.73,SW,224,7.0,17.0,74,0.00,,,0.00,Wunderground v.1.15,2013-02-20 01:30:00,
2013-02-19 20:40:00,30.3,23.3,29.73,West,259,9.0,9.0,75,0.00,,,0.00,Wunderground v.1.15,2013-02-20 01:40:00,
2013-02-19 20:50:00,30.1,22.8,29.73,West,277,8.0,17.0,74,0.00,,,0.00,Wunderground v.1.15,2013-02-20 01:50:00,
2013-02-19 21:00:00,29.8,21.9,29.74,West,260,10.0,17.0,72,0.00,,,0.00,Wunderground v.1.15,2013-02-20 02:00:00,
2013-02-19 21:10:00,29.5,21.9,29.74,SW,229,11.0,11.0,73,0.00,,,0.00,Wunderground v.1.15,2013-02-20 02:10:00,
2013-02-19 21:20:00,29.3,22.0,29.74,WSW,252,10.0,10.0,74,0.00,,,0.00,Wunderground v.1.15,2013-02-20 02:20:00,
2013-02-19 21:30:00,29.1,21.8,29.75,West,260,10.0,10.0,74,0.00,,,0.00,Wunderground v.1.15,2013-02-20 02:30:00,
2013-02-19 21:40:00,28.8,21.6,29.75,WNW,288,9.0,17.0,74,0.00,,,0.00,Wunderground v.1.15,2013-02-20 02:40:00,
2013-02-19 21:50:00,28.5,20.9,29.75,WSW,254,10.0,10.0,73,0.00,,,0.00,Wunderground v.1.15,2013-02-20 02:50:00,
2013-02-19 22:00:00,28.3,20.4,29.75,West,265,9.0,17.0,72,0.00,,,0.00,Wunderground v.1.15,2013-02-20 03:00:00,
2013-02-19 22:10:00,28.2,20.7,29.75,SW,234,9.0,9.0,73,0.00,,,0.00,Wunderground v.1.15,2013-02-20 03:10:00,
2013-02-19 22:20:00,28.1,20.6,29.75,West,267,8.0,8.0,73,0.00,,,0.00,Wunderground v.1.15,2013-02-20 03:20:00,
2013-02-19 22:30:00,27.7,21.4,29.75,SW,222,8.0,17.0,77,0.00,,,0.00,Wunderground v.1.15,2013-02-20 03:30:00,
2013-02-19 22:40:00,27.4,21.4,29.75,West,259,8.0,8.0,78,0.00,,,0.00,Wunderground v.1.15,2013-02-20 03:40:00,
2013-02-19 22:50:00,27.4,21.4,29.75,West,279,7.0,17.0,78,0.00,,,0.00,Wunderground v.1.15,2013-02-20 03:50:00,
2013-02-19 23:00:00,27.4,21.1,29.75,WSW,242,8.0,17.0,77,0.00,,,0.00,Wunderground v.1.15,2013-02-20 04:00:00,
2013-02-19 23:10:00,27.3,21.3,29.75,West,261,6.0,17.0,78,0.00,,,0.00,Wunderground v.1.15,2013-02-20 04:10:00,
2013-02-19 23:20:00,27.2,20.9,29.75,WSW,240,9.0,9.0,77,0.00,,,0.00,Wunderground v.1.15,2013-02-20 04:20:00,
2013-02-19 23:31:00,27.0,20.7,29.75,WSW,240,7.0,17.0,77,0.00,,,0.00,Wunderground v.1.15,2013-02-20 04:31:00,
2013-02-19 23:40:00,26.9,20.3,29.75,SW,225,8.0,17.0,76,0.00,,,0.00,Wunderground v.1.15,2013-02-20 04:40:00,
2013-02-19 23:51:00,27.0,19.8,29.76,WSW,258,7.0,17.0,74,0.00,,,0.00,Wunderground v.1.15,2013-02-20 04:51:00,